Time,TemperatureF,DewpointF,PressureIn,WindDirection,WindDirectionDegrees,WindSpeedMPH,WindSpeedGustMPH,Humidity,HourlyPrecipIn,Conditions,Clouds,dailyrainin,SoftwareType,DateUTC
2013-01-16 00:00:00,30.9,17.0,29.06,North,0,2.7,3.6,56,0.00,,,0.00,WUHU216WMR100,2013-01-16 05:00:00,
2013-01-16 00:01:00,30.9,17.5,29.06,North,0,2.7,3.6,57,0.00,,,0.00,WUHU216WMR100,2013-01-16 05:01:00,
2013-01-16 00:02:00,30.9,17.5,29.06,North,0,2.7,3.6,57,0.00,,,0.00,WUHU216WMR100,2013-01-16 05:02:00,
2013-01-16 00:03:00,30.9,17.5,29.06,NNE,22,0.0,3.6,57,0.00,,,0.00,WUHU216WMR100,2013-01-16 05:03:00,
2013-01-16 00:08:00,30.9,17.5,29.06,NNE,22,0.0,3.4,57,0.00,,,0.00,WUHU216WMR100,2013-01-16 05:08:00,
2013-01-16 00:13:00,30.9,17.5,29.06,NE,45,2.7,3.1,57,0.00,,,0.00,WUHU216WMR100,2013-01-16 05:13:00,
2013-01-16 00:18:00,30.9,17.5,29.06,NNE,22,1.6,3.1,57,0.00,,,0.00,WUHU216WMR100,2013-01-16 05:18:00,
2013-01-16 00:23:00,30.9,17.0,29.06,NNE,22,0.0,3.1,56,0.00,,,0.00,WUHU216WMR100,2013-01-16 05:23:00,
2013-01-16 00:28:00,30.9,17.0,29.03,NE,45,2.7,3.6,56,0.00,,,0.00,WUHU216WMR100,2013-01-16 05:28:00,
2013-01-16 00:33:00,30.9,17.0,29.03,North,0,2.2,3.6,56,0.00,,,0.00,WUHU216WMR100,2013-01-16 05:33:00,
2013-01-16 00:38:00,30.9,17.0,29.03,NNE,22,2.2,3.4,56,0.00,,,0.00,WUHU216WMR100,2013-01-16 05:38:00,
2013-01-16 00:43:00,31.1,17.2,29.03,NNE,22,2.5,3.4,56,0.00,,,0.00,WUHU216WMR100,2013-01-16 05:43:00,
2013-01-16 00:48:00,31.1,17.2,29.03,ENE,67,2.0,3.1,56,0.00,,,0.00,WUHU216WMR100,2013-01-16 05:48:00,
2013-01-16 00:53:00,31.1,17.2,29.03,East,90,2.5,3.6,56,0.00,,,0.00,WUHU216WMR100,2013-01-16 05:53:00,
2013-01-16 00:58:00,31.1,17.2,29.03,ENE,67,2.7,3.6,56,0.00,,,0.00,WUHU216WMR100,2013-01-16 05:58:00,
2013-01-16 01:03:00,31.1,17.2,29.03,NE,45,0.0,3.6,56,0.00,,,0.00,WUHU216WMR100,2013-01-16 06:03:00,
2013-01-16 01:08:00,31.1,17.2,29.03,ENE,67,0.0,3.1,56,0.00,,,0.00,WUHU216WMR100,2013-01-16 06:08:00,
2013-01-16 01:13:00,31.1,17.2,29.03,ESE,112,1.1,1.6,56,0.00,,,0.00,WUHU216WMR100,2013-01-16 06:13:00,
2013-01-16 01:18:00,31.1,17.2,29.03,SE,135,1.3,2.7,56,0.00,,,0.00,WUHU216WMR100,2013-01-16 06:18:00,
2013-01-16 01:23:00,31.1,17.2,29.03,ENE,67,1.3,2.9,56,0.00,,,0.00,WUHU216WMR100,2013-01-16 06:23:00,
2013-01-16 01:28:00,31.3,17.4,29.03,ESE,112,2.2,3.1,56,0.00,,,0.00,WUHU216WMR100,2013-01-16 06:28:00,
2013-01-16 01:33:00,31.3,17.0,29.03,East,90,3.1,3.6,55,0.00,,,0.00,WUHU216WMR100,2013-01-16 06:33:00,
2013-01-16 01:38:00,31.3,17.0,29.03,ESE,112,2.2,3.6,55,0.00,,,0.00,WUHU216WMR100,2013-01-16 06:38:00,
2013-01-16 01:43:00,31.3,17.4,29.00,ESE,112,2.0,3.6,56,0.00,,,0.00,WUHU216WMR100,2013-01-16 06:43:00,
2013-01-16 01:48:00,31.3,17.4,29.00,ESE,112,0.0,2.9,56,0.00,,,0.00,WUHU216WMR100,2013-01-16 06:48:00,
2013-01-16 01:53:00,31.3,17.4,29.00,ESE,112,3.1,3.1,56,0.00,,,0.00,WUHU216WMR100,2013-01-16 06:53:00,
2013-01-16 01:58:00,31.5,17.6,29.00,ESE,112,2.5,3.1,56,0.00,,,0.00,WUHU216WMR100,2013-01-16 06:58:00,
2013-01-16 02:03:00,31.5,17.6,29.00,SSE,157,2.5,3.6,56,0.00,,,0.00,WUHU216WMR100,2013-01-16 07:03:00,
2013-01-16 02:08:00,31.5,17.6,29.00,ESE,112,1.1,3.6,56,0.00,,,0.00,WUHU216WMR100,2013-01-16 07:08:00,
2013-01-16 02:13:00,31.6,17.7,29.00,ESE,112,2.5,2.9,56,0.00,,,0.00,WUHU216WMR100,2013-01-16 07:13:00,
2013-01-16 02:18:00,31.6,17.7,29.00,ESE,112,1.6,2.9,56,0.00,,,0.00,WUHU216WMR100,2013-01-16 07:18:00,
2013-01-16 02:23:00,31.6,17.7,29.00,SSE,157,2.2,3.6,56,0.00,,,0.00,WUHU216WMR100,2013-01-16 07:23:00,
2013-01-16 02:28:00,31.8,17.9,29.00,ESE,112,3.4,4.3,56,0.00,,,0.00,WUHU216WMR100,2013-01-16 07:28:00,
2013-01-16 02:33:00,31.8,17.5,29.00,ESE,112,3.8,4.3,55,0.00,,,0.00,WUHU216WMR100,2013-01-16 07:33:00,
2013-01-16 02:38:00,31.8,17.9,29.00,ESE,112,2.2,6.5,56,0.00,,,0.00,WUHU216WMR100,2013-01-16 07:38:00,
2013-01-16 02:43:00,31.8,17.9,28.97,NNE,22,1.6,6.5,56,0.00,,,0.00,WUHU216WMR100,2013-01-16 07:43:00,
2013-01-16 02:48:00,31.8,17.9,28.97,East,90,1.6,3.8,56,0.00,,,0.00,WUHU216WMR100,2013-01-16 07:48:00,
2013-01-16 02:53:00,31.8,17.9,28.97,ENE,67,0.0,3.8,56,0.00,,,0.00,WUHU216WMR100,2013-01-16 07:53:00,
2013-01-16 02:58:00,32.0,18.1,28.97,NNE,22,1.6,3.4,56,0.00,,,0.00,WUHU216WMR100,2013-01-16 07:58:00,
2013-01-16 03:03:00,32.0,18.1,28.97,North,0,1.1,2.5,56,0.00,,,0.00,WUHU216WMR100,2013-01-16 08:03:00,
2013-01-16 03:08:00,32.0,18.1,28.97,ESE,112,0.0,2.5,56,0.00,,,0.00,WUHU216WMR100,2013-01-16 08:08:00,
2013-01-16 03:13:00,32.0,18.1,29.00,East,90,0.0,2.0,56,0.00,,,0.00,WUHU216WMR100,2013-01-16 08:13:00,
2013-01-16 03:18:00,32.0,18.1,29.00,East,90,0.0,2.0,56,0.00,,,0.00,WUHU216WMR100,2013-01-16 08:18:00,
2013-01-16 03:23:00,32.0,18.1,29.00,NNE,22,1.3,2.0,56,0.00,,,0.00,WUHU216WMR100,2013-01-16 08:23:00,
2013-01-16 03:28:00,32.2,18.3,29.00,NNE,22,0.0,2.0,56,0.00,,,0.00,WUHU216WMR100,2013-01-16 08:28:00,
2013-01-16 03:33:00,32.2,18.3,29.00,ENE,67,0.0,2.0,56,0.00,,,0.00,WUHU216WMR100,2013-01-16 08:33:00,
2013-01-16 03:38:00,32.0,18.5,29.00,ENE,67,0.0,0.0,57,0.00,,,0.00,WUHU216WMR100,2013-01-16 08:38:00,
2013-01-16 03:43:00,32.0,18.5,28.97,NNE,22,1.3,2.5,57,0.00,,,0.00,WUHU216WMR100,2013-01-16 08:43:00,
2013-01-16 03:48:00,31.8,18.3,28.97,NNE,22,2.0,2.5,57,0.00,,,0.00,WUHU216WMR100,2013-01-16 08:48:00,
2013-01-16 03:53:00,32.0,18.5,28.97,NNE,22,2.0,2.5,57,0.00,,,0.00,WUHU216WMR100,2013-01-16 08:53:00,
2013-01-16 03:58:00,32.0,18.9,28.97,North,0,0.0,2.0,58,0.00,,,0.00,WUHU216WMR100,2013-01-16 08:58:00,
2013-01-16 04:03:00,31.8,18.3,28.97,NE,45,0.0,2.0,57,0.00,,,0.00,WUHU216WMR100,2013-01-16 09:03:00,
2013-01-16 04:08:00,32.0,18.9,28.97,NE,45,0.0,0.0,58,0.00,,,0.00,WUHU216WMR100,2013-01-16 09:08:00,
2013-01-16 04:13:00,32.0,18.9,28.97,NNE,22,0.9,0.9,58,0.00,,,0.00,WUHU216WMR100,2013-01-16 09:13:00,
2013-01-16 04:18:00,32.0,18.9,28.97,NNE,22,3.1,3.1,58,0.00,,,0.00,WUHU216WMR100,2013-01-16 09:18:00,
2013-01-16 04:23:00,32.0,18.9,28.97,NNE,22,3.1,3.1,58,0.00,,,0.00,WUHU216WMR100,2013-01-16 09:23:00,
2013-01-16 04:28:00,32.0,18.9,28.94,East,90,0.0,3.1,58,0.00,,,0.00,WUHU216WMR100,2013-01-16 09:28:00,
2013-01-16 04:33:00,32.0,18.5,28.94,NNW,337,1.6,3.1,57,0.00,,,0.00,WUHU216WMR100,2013-01-16 09:33:00,
2013-01-16 04:38:00,32.0,18.9,28.94,NNE,22,0.0,2.9,58,0.00,,,0.00,WUHU216WMR100,2013-01-16 09:38:00,
2013-01-16 04:43:00,32.0,18.9,28.94,ENE,67,1.3,2.9,58,0.00,,,0.00,WUHU216WMR100,2013-01-16 09:43:00,
2013-01-16 04:49:00,32.0,18.9,28.94,ENE,67,0.0,1.3,58,0.00,,,0.00,WUHU216WMR100,2013-01-16 09:49:00,
2013-01-16 04:54:00,31.8,18.7,28.94,East,90,1.3,1.3,58,0.00,,,0.00,WUHU216WMR100,2013-01-16 09:54:00,
2013-01-16 04:59:00,31.8,18.7,28.94,East,90,1.3,1.3,58,0.00,,,0.00,WUHU216WMR100,2013-01-16 09:59:00,
2013-01-16 05:04:00,31.8,18.7,28.94,East,90,1.3,3.4,58,0.00,,,0.00,WUHU216WMR100,2013-01-16 10:04:00,
2013-01-16 05:09:00,31.8,18.7,28.94,NNE,22,1.6,3.4,58,0.00,,,0.00,WUHU216WMR100,2013-01-16 10:09:00,
2013-01-16 05:14:00,31.8,18.7,28.94,North,0,2.2,2.2,58,0.00,,,0.00,WUHU216WMR100,2013-01-16 10:14:00,
2013-01-16 05:19:00,31.8,18.7,28.94,NNE,22,0.0,2.2,58,0.00,,,0.00,WUHU216WMR100,2013-01-16 10:19:00,
2013-01-16 05:24:00,31.8,18.7,28.94,NNE,22,0.0,2.2,58,0.00,,,0.00,WUHU216WMR100,2013-01-16 10:24:00,
2013-01-16 05:29:00,31.8,18.7,28.91,NNE,22,0.0,2.2,58,0.00,,,0.00,WUHU216WMR100,2013-01-16 10:29:00,
2013-01-16 05:34:00,31.8,18.7,28.91,NNE,22,0.0,2.2,58,0.00,,,0.00,WUHU216WMR100,2013-01-16 10:34:00,
2013-01-16 05:39:00,31.8,18.7,28.91,NNE,22,0.0,2.2,58,0.00,,,0.00,WUHU216WMR100,2013-01-16 10:39:00,
2013-01-16 05:44:00,31.8,18.7,28.94,NNE,22,0.0,0.0,58,0.00,,,0.00,WUHU216WMR100,2013-01-16 10:44:00,
2013-01-16 05:49:00,32.0,18.9,28.94,NNW,337,1.6,2.0,58,0.00,,,0.00,WUHU216WMR100,2013-01-16 10:49:00,
2013-01-16 05:54:00,32.0,18.9,28.94,NNE,22,1.3,2.0,58,0.00,,,0.00,WUHU216WMR100,2013-01-16 10:54:00,
2013-01-16 05:59:00,32.0,18.9,28.91,NNE,22,1.3,2.0,58,0.00,,,0.00,WUHU216WMR100,2013-01-16 10:59:00,
2013-01-16 06:04:00,32.0,19.3,28.91,NW,315,1.6,3.6,59,0.00,,,0.00,WUHU216WMR100,2013-01-16 11:04:00,
2013-01-16 06:09:00,32.0,19.3,28.91,NE,45,0.0,3.6,59,0.00,,,0.00,WUHU216WMR100,2013-01-16 11:09:00,
2013-01-16 06:14:00,32.0,19.3,28.94,NNW,337,2.7,3.6,59,0.00,,,0.00,WUHU216WMR100,2013-01-16 11:14:00,
2013-01-16 06:19:00,32.0,18.9,28.94,NNW,337,2.7,3.6,58,0.00,,,0.00,WUHU216WMR100,2013-01-16 11:19:00,
2013-01-16 06:24:00,32.0,18.9,28.94,NNW,337,3.6,3.6,58,0.00,,,0.00,WUHU216WMR100,2013-01-16 11:24:00,
2013-01-16 06:29:00,32.0,18.9,28.94,NNW,337,3.6,3.6,58,0.00,,,0.00,WUHU216WMR100,2013-01-16 11:29:00,
2013-01-16 06:34:00,32.0,18.9,28.94,NNE,22,0.0,3.6,58,0.00,,,0.00,WUHU216WMR100,2013-01-16 11:34:00,
2013-01-16 06:39:00,32.0,18.9,28.94,NNW,337,1.6,3.6,58,0.00,,,0.00,WUHU216WMR100,2013-01-16 11:39:00,
2013-01-16 06:44:00,32.0,18.9,28.91,NNW,337,2.0,4.0,58,0.00,,,0.00,WUHU216WMR100,2013-01-16 11:44:00,
2013-01-16 06:49:00,32.0,19.3,28.91,North,0,3.1,4.7,59,0.00,,,0.00,WUHU216WMR100,2013-01-16 11:49:00,
2013-01-16 06:54:00,32.0,19.3,28.91,North,0,3.1,4.7,59,0.00,,,0.00,WUHU216WMR100,2013-01-16 11:54:00,
2013-01-16 06:59:00,32.0,19.3,28.94,North,0,3.1,3.1,59,0.00,,,0.00,WUHU216WMR100,2013-01-16 11:59:00,
2013-01-16 07:04:00,32.0,19.3,28.94,North,0,1.6,3.1,59,0.00,,,0.00,WUHU216WMR100,2013-01-16 12:04:00,
2013-01-16 07:09:00,32.0,19.7,28.94,North,0,1.6,3.1,60,0.00,,,0.00,WUHU216WMR100,2013-01-16 12:09:00,
2013-01-16 07:14:00,31.8,19.9,28.94,North,0,1.6,1.6,61,0.00,,,0.00,WUHU216WMR100,2013-01-16 12:14:00,
2013-01-16 07:19:00,31.6,19.7,28.94,North,0,1.6,1.6,61,0.00,,,0.00,WUHU216WMR100,2013-01-16 12:19:00,
2013-01-16 07:24:00,31.6,20.1,28.94,North,0,1.6,1.6,62,0.00,,,0.00,WUHU216WMR100,2013-01-16 12:24:00,
2013-01-16 07:29:00,31.6,20.5,28.94,NNW,337,2.0,2.7,63,0.00,,,0.00,WUHU216WMR100,2013-01-16 12:29:00,
2013-01-16 07:34:00,31.5,20.0,28.94,NNE,22,0.0,2.7,62,0.00,,,0.00,WUHU216WMR100,2013-01-16 12:34:00,
2013-01-16 07:39:00,31.5,20.4,28.94,NNE,22,0.0,2.7,63,0.00,,,0.00,WUHU216WMR100,2013-01-16 12:39:00,
2013-01-16 07:44:00,31.5,20.8,28.94,NNE,22,0.0,2.0,64,0.00,,,0.00,WUHU216WMR100,2013-01-16 12:44:00,
2013-01-16 07:49:00,31.3,20.6,28.94,NNE,22,0.0,2.0,64,0.00,,,0.00,WUHU216WMR100,2013-01-16 12:49:00,
2013-01-16 07:54:00,31.1,21.1,28.94,North,0,0.0,2.0,66,0.00,,,0.00,WUHU216WMR100,2013-01-16 12:54:00,
2013-01-16 07:59:00,31.1,21.5,28.94,NNE,22,0.0,2.0,67,0.00,,,0.00,WUHU216WMR100,2013-01-16 12:59:00,
2013-01-16 08:04:00,30.9,21.3,28.94,North,0,1.1,1.6,67,0.00,,,0.00,WUHU216WMR100,2013-01-16 13:04:00,
2013-01-16 08:09:00,30.7,22.1,28.94,North,0,0.0,1.6,70,0.00,,,0.00,WUHU216WMR100,2013-01-16 13:09:00,
2013-01-16 08:14:00,30.6,21.7,28.94,NNE,22,1.1,2.0,69,0.00,,,0.00,WUHU216WMR100,2013-01-16 13:14:00,
2013-01-16 08:19:00,30.6,22.0,28.94,NNE,22,0.0,2.0,70,0.00,,,0.00,WUHU216WMR100,2013-01-16 13:19:00,
2013-01-16 08:24:00,30.4,22.2,28.94,NNE,22,0.0,1.1,71,0.00,,,0.00,WUHU216WMR100,2013-01-16 13:24:00,
2013-01-16 08:29:00,30.4,22.2,28.94,NNE,22,0.0,1.1,71,0.00,,,0.00,WUHU216WMR100,2013-01-16 13:29:00,
2013-01-16 08:34:00,30.4,22.8,28.94,NNE,22,0.0,1.1,73,0.00,,,0.00,WUHU216WMR100,2013-01-16 13:34:00,
2013-01-16 08:39:00,30.4,22.8,28.94,NNE,22,0.0,1.1,73,0.00,,,0.00,WUHU216WMR100,2013-01-16 13:39:00,
2013-01-16 08:44:00,30.4,22.8,28.97,NNE,22,0.0,1.1,73,0.00,,,0.00,WUHU216WMR100,2013-01-16 13:44:00,
2013-01-16 08:49:00,30.4,22.8,28.97,NNE,22,0.0,1.1,73,0.00,,,0.00,WUHU216WMR100,2013-01-16 13:49:00,
2013-01-16 08:54:00,30.4,22.8,28.97,NNE,22,0.0,1.1,73,0.00,,,0.00,WUHU216WMR100,2013-01-16 13:54:00,
2013-01-16 08:59:00,30.4,22.8,28.94,NNE,22,0.0,1.1,73,0.00,,,0.00,WUHU216WMR100,2013-01-16 13:59:00,
2013-01-16 09:04:00,30.4,22.8,28.94,NNE,22,0.0,1.1,73,0.00,,,0.00,WUHU216WMR100,2013-01-16 14:04:00,
2013-01-16 09:09:00,30.4,22.8,28.94,SSW,202,1.3,2.2,73,0.00,,,0.00,WUHU216WMR100,2013-01-16 14:09:00,
2013-01-16 09:14:00,30.6,24.6,28.97,South,180,2.0,2.2,78,0.00,,,0.00,WUHU216WMR100,2013-01-16 14:14:00,
2013-01-16 09:19:00,30.6,24.6,28.97,SE,135,0.0,2.2,78,0.00,,,0.00,WUHU216WMR100,2013-01-16 14:19:00,
2013-01-16 09:24:00,30.7,25.0,28.97,ESE,112,0.0,2.0,79,0.00,,,0.00,WUHU216WMR100,2013-01-16 14:24:00,
2013-01-16 09:29:00,30.7,24.7,28.94,ENE,67,0.0,0.0,78,0.00,,,0.00,WUHU216WMR100,2013-01-16 14:29:00,
2013-01-16 09:34:00,30.7,25.0,28.94,ENE,67,0.0,0.0,79,0.00,,,0.00,WUHU216WMR100,2013-01-16 14:34:00,
2013-01-16 09:39:00,30.7,25.0,28.94,ENE,67,0.0,0.0,79,0.00,,,0.00,WUHU216WMR100,2013-01-16 14:39:00,
2013-01-16 09:44:00,30.7,25.0,28.94,West,270,1.1,1.1,79,0.00,,,0.00,WUHU216WMR100,2013-01-16 14:44:00,
2013-01-16 09:49:00,30.7,25.3,28.94,West,270,1.1,1.1,80,0.00,,,0.00,WUHU216WMR100,2013-01-16 14:49:00,
2013-01-16 09:54:00,30.7,25.8,28.94,West,270,1.1,1.1,82,0.00,,,0.00,WUHU216WMR100,2013-01-16 14:54:00,
2013-01-16 09:59:00,30.7,26.1,28.94,West,270,1.1,1.1,83,0.00,,,0.00,WUHU216WMR100,2013-01-16 14:59:00,
2013-01-16 10:04:00,30.9,26.3,28.94,WSW,247,0.9,1.3,83,0.00,,,0.00,WUHU216WMR100,2013-01-16 15:04:00,
2013-01-16 10:09:00,30.9,26.3,28.94,WNW,292,1.6,2.5,83,0.00,,,0.00,WUHU216WMR100,2013-01-16 15:09:00,
2013-01-16 10:14:00,31.1,26.8,28.94,West,270,2.7,2.7,84,0.00,,,0.00,WUHU216WMR100,2013-01-16 15:14:00,
2013-01-16 10:19:00,31.1,27.1,28.94,West,270,2.7,2.7,85,0.00,,,0.00,WUHU216WMR100,2013-01-16 15:19:00,
2013-01-16 10:24:00,31.1,27.1,28.94,SSE,157,0.9,2.7,85,0.00,,,0.00,WUHU216WMR100,2013-01-16 15:24:00,
2013-01-16 10:29:00,31.1,27.1,28.94,SSE,157,0.0,2.7,85,0.00,,,0.00,WUHU216WMR100,2013-01-16 15:29:00,
2013-01-16 10:34:00,31.5,27.5,28.94,WSW,247,2.2,2.2,85,0.00,,,0.00,WUHU216WMR100,2013-01-16 15:34:00,
2013-01-16 10:39:00,31.5,27.5,28.94,SSW,202,0.0,2.5,85,0.00,,,0.00,WUHU216WMR100,2013-01-16 15:39:00,
2013-01-16 10:44:00,31.5,27.5,28.94,SSW,202,2.0,2.7,85,0.00,,,0.00,WUHU216WMR100,2013-01-16 15:44:00,
2013-01-16 10:49:00,31.8,28.1,28.94,SSE,157,1.6,2.7,86,0.00,,,0.00,WUHU216WMR100,2013-01-16 15:49:00,
2013-01-16 10:54:00,32.0,28.5,28.94,WSW,247,0.9,5.4,87,0.00,,,0.00,WUHU216WMR100,2013-01-16 15:54:00,
2013-01-16 10:59:00,32.2,28.7,28.94,WNW,292,1.6,5.4,87,0.00,,,0.00,WUHU216WMR100,2013-01-16 15:59:00,
2013-01-16 11:04:00,32.4,28.9,28.94,SSE,157,0.0,2.2,87,0.00,,,0.00,WUHU216WMR100,2013-01-16 16:04:00,
2013-01-16 11:09:00,32.4,29.2,28.97,SSW,202,3.4,4.3,88,0.00,,,0.00,WUHU216WMR100,2013-01-16 16:09:00,
2013-01-16 11:14:00,32.4,29.2,28.97,WSW,247,1.6,4.3,88,0.00,,,0.00,WUHU216WMR100,2013-01-16 16:14:00,
2013-01-16 11:19:00,32.5,29.0,28.97,WSW,247,1.3,4.3,87,0.00,,,0.00,WUHU216WMR100,2013-01-16 16:19:00,
2013-01-16 11:24:00,32.5,29.0,28.94,SSW,202,2.9,2.9,87,0.00,,,0.00,WUHU216WMR100,2013-01-16 16:24:00,
2013-01-16 11:29:00,32.5,29.3,28.94,SSW,202,2.5,4.3,88,0.00,,,0.00,WUHU216WMR100,2013-01-16 16:29:00,
2013-01-16 11:34:00,32.7,29.5,28.94,WSW,247,2.7,4.3,88,0.00,,,0.00,WUHU216WMR100,2013-01-16 16:34:00,
2013-01-16 11:39:00,33.1,29.6,28.94,West,270,0.0,3.1,87,0.00,,,0.00,WUHU216WMR100,2013-01-16 16:39:00,
2013-01-16 11:44:00,33.1,29.6,28.94,WSW,247,1.6,4.0,87,0.00,,,0.00,WUHU216WMR100,2013-01-16 16:44:00,
2013-01-16 11:49:00,33.1,29.6,28.94,West,270,2.2,4.0,87,0.00,,,0.00,WUHU216WMR100,2013-01-16 16:49:00,
2013-01-16 11:54:00,33.3,29.8,28.91,NNW,337,1.3,2.7,87,0.00,,,0.00,WUHU216WMR100,2013-01-16 16:54:00,
2013-01-16 11:59:00,33.3,29.5,28.91,NNW,337,1.3,2.7,86,0.00,,,0.00,WUHU216WMR100,2013-01-16 16:59:00,
2013-01-16 12:04:00,33.4,29.4,28.91,NNW,337,1.3,1.3,85,0.00,,,0.00,WUHU216WMR100,2013-01-16 17:04:00,
2013-01-16 12:09:00,33.6,29.5,28.91,SSW,202,1.6,4.3,85,0.00,,,0.00,WUHU216WMR100,2013-01-16 17:09:00,
2013-01-16 12:14:00,33.6,29.3,28.91,WSW,247,1.3,4.3,84,0.00,,,0.00,WUHU216WMR100,2013-01-16 17:14:00,
2013-01-16 12:19:00,33.8,29.2,28.91,West,270,2.9,3.1,83,0.00,,,0.00,WUHU216WMR100,2013-01-16 17:19:00,
2013-01-16 12:24:00,33.8,28.9,28.91,West,270,2.9,3.1,82,0.00,,,0.00,WUHU216WMR100,2013-01-16 17:24:00,
2013-01-16 12:29:00,33.8,28.6,28.91,West,270,2.2,3.4,81,0.00,,,0.00,WUHU216WMR100,2013-01-16 17:29:00,
2013-01-16 12:34:00,33.8,28.3,28.91,West,270,2.2,3.4,80,0.00,,,0.00,WUHU216WMR100,2013-01-16 17:34:00,
2013-01-16 12:39:00,33.8,27.7,28.91,West,270,4.5,4.5,78,0.00,,,0.00,WUHU216WMR100,2013-01-16 17:39:00,
2013-01-16 12:44:00,33.8,27.7,28.91,West,270,2.2,4.5,78,0.00,,,0.00,WUHU216WMR100,2013-01-16 17:44:00,
2013-01-16 12:49:00,33.8,27.4,28.91,SSE,157,3.1,4.5,77,0.00,,,0.00,WUHU216WMR100,2013-01-16 17:49:00,
2013-01-16 12:54:00,34.0,27.6,28.91,WSW,247,2.2,4.0,77,0.00,,,0.00,WUHU216WMR100,2013-01-16 17:54:00,
2013-01-16 12:59:00,34.3,27.9,28.91,NNW,337,2.2,4.0,77,0.00,,,0.00,WUHU216WMR100,2013-01-16 17:59:00,
2013-01-16 13:04:00,34.5,27.8,28.91,West,270,1.3,4.9,76,0.00,,,0.00,WUHU216WMR100,2013-01-16 18:04:00,
2013-01-16 13:09:00,34.3,27.2,28.91,WNW,292,4.5,6.3,75,0.00,,,0.00,WUHU216WMR100,2013-01-16 18:09:00,
2013-01-16 13:14:00,34.5,26.5,28.91,West,270,1.1,6.3,72,0.00,,,0.00,WUHU216WMR100,2013-01-16 18:14:00,
2013-01-16 13:19:00,34.7,26.7,28.91,WSW,247,3.4,4.7,72,0.00,,,0.00,WUHU216WMR100,2013-01-16 18:19:00,
2013-01-16 13:24:00,35.1,27.0,28.88,SSW,202,2.9,4.7,72,0.00,,,0.00,WUHU216WMR100,2013-01-16 18:24:00,
2013-01-16 13:29:00,35.1,26.7,28.88,SSE,157,3.8,4.7,71,0.00,,,0.00,WUHU216WMR100,2013-01-16 18:29:00,
2013-01-16 13:34:00,35.1,26.4,28.88,WNW,292,2.2,4.3,70,0.00,,,0.00,WUHU216WMR100,2013-01-16 18:34:00,
2013-01-16 13:39:00,35.2,26.5,28.88,WSW,247,1.3,4.0,70,0.00,,,0.00,WUHU216WMR100,2013-01-16 18:39:00,
2013-01-16 13:44:00,35.4,26.7,28.88,West,270,2.7,4.0,70,0.00,,,0.00,WUHU216WMR100,2013-01-16 18:44:00,
2013-01-16 13:49:00,35.6,26.2,28.88,NNW,337,2.9,4.9,68,0.00,,,0.00,WUHU216WMR100,2013-01-16 18:49:00,
2013-01-16 13:54:00,35.6,26.2,28.88,West,270,2.9,5.8,68,0.00,,,0.00,WUHU216WMR100,2013-01-16 18:54:00,
2013-01-16 13:59:00,35.8,26.0,28.88,WSW,247,2.9,5.8,67,0.00,,,0.00,WUHU216WMR100,2013-01-16 18:59:00,
2013-01-16 14:04:00,35.8,25.3,28.88,WSW,247,3.8,4.0,65,0.00,,,0.00,WUHU216WMR100,2013-01-16 19:04:00,
2013-01-16 14:09:00,36.1,25.9,28.91,SSW,202,2.2,4.0,66,0.00,,,0.00,WUHU216WMR100,2013-01-16 19:09:00,
2013-01-16 14:14:00,36.3,25.7,28.91,South,180,2.2,3.4,65,0.00,,,0.00,WUHU216WMR100,2013-01-16 19:14:00,
2013-01-16 14:19:00,36.5,25.5,28.91,WNW,292,2.7,5.6,64,0.00,,,0.00,WUHU216WMR100,2013-01-16 19:19:00,
2013-01-16 14:24:00,36.7,25.0,28.91,WNW,292,2.9,5.8,62,0.00,,,0.00,WUHU216WMR100,2013-01-16 19:24:00,
2013-01-16 14:29:00,36.7,24.6,28.91,NNW,337,3.1,5.8,61,0.00,,,0.00,WUHU216WMR100,2013-01-16 19:29:00,
2013-01-16 14:34:00,36.9,24.8,28.91,NW,315,2.0,5.4,61,0.00,,,0.00,WUHU216WMR100,2013-01-16 19:34:00,
2013-01-16 14:39:00,37.0,24.9,28.91,NNW,337,2.5,3.4,61,0.00,,,0.00,WUHU216WMR100,2013-01-16 19:39:00,
2013-01-16 14:44:00,37.0,23.6,28.91,SW,225,2.7,4.9,58,0.00,,,0.00,WUHU216WMR100,2013-01-16 19:44:00,
2013-01-16 14:49:00,37.2,23.8,28.91,WNW,292,2.5,4.9,58,0.00,,,0.00,WUHU216WMR100,2013-01-16 19:49:00,
2013-01-16 14:54:00,37.0,22.8,28.91,WSW,247,2.5,4.9,56,0.00,,,0.00,WUHU216WMR100,2013-01-16 19:54:00,
2013-01-16 14:59:00,37.2,23.4,28.91,South,180,2.2,5.6,57,0.00,,,0.00,WUHU216WMR100,2013-01-16 19:59:00,
2013-01-16 15:04:00,37.2,22.5,28.91,South,180,2.9,7.4,55,0.00,,,0.00,WUHU216WMR100,2013-01-16 20:04:00,
2013-01-16 15:09:00,37.0,21.9,28.91,WSW,247,3.6,7.4,54,0.00,,,0.00,WUHU216WMR100,2013-01-16 20:09:00,
2013-01-16 15:14:00,37.0,21.9,28.91,South,180,3.4,4.9,54,0.00,,,0.00,WUHU216WMR100,2013-01-16 20:14:00,
2013-01-16 15:19:00,37.0,21.4,28.91,SW,225,2.7,6.5,53,0.00,,,0.00,WUHU216WMR100,2013-01-16 20:19:00,
2013-01-16 15:24:00,36.9,20.9,28.91,SSE,157,4.3,6.5,52,0.00,,,0.00,WUHU216WMR100,2013-01-16 20:24:00,
2013-01-16 15:29:00,36.9,21.3,28.91,SSE,157,4.3,5.6,53,0.00,,,0.00,WUHU216WMR100,2013-01-16 20:29:00,
2013-01-16 15:34:00,37.0,21.4,28.91,SSE,157,4.3,4.3,53,0.00,,,0.00,WUHU216WMR100,2013-01-16 20:34:00,
2013-01-16 15:39:00,36.9,21.3,28.91,SSE,157,4.3,4.3,53,0.00,,,0.00,WUHU216WMR100,2013-01-16 20:39:00,
2013-01-16 15:45:00,36.9,21.3,28.91,SSE,157,4.3,4.3,53,0.00,,,0.00,WUHU216WMR100,2013-01-16 20:45:00,
2013-01-16 15:50:00,36.9,21.3,28.91,SSE,157,4.3,4.3,53,0.00,,,0.00,WUHU216WMR100,2013-01-16 20:50:00,
2013-01-16 15:55:00,36.9,21.3,28.91,SSE,157,4.3,4.3,53,0.00,,,0.00,WUHU216WMR100,2013-01-16 20:55:00,
2013-01-16 16:00:00,36.7,21.2,28.91,SSE,157,4.3,4.3,53,0.00,,,0.00,WUHU216WMR100,2013-01-16 21:00:00,
2013-01-16 16:05:00,36.5,20.5,28.91,SSE,157,4.3,4.3,52,0.00,,,0.00,WUHU216WMR100,2013-01-16 21:05:00,
2013-01-16 16:10:00,36.5,20.5,28.94,SSE,157,4.3,4.3,52,0.00,,,0.00,WUHU216WMR100,2013-01-16 21:10:00,
2013-01-16 16:15:00,36.3,20.3,28.94,SSE,157,4.3,4.3,52,0.00,,,0.00,WUHU216WMR100,2013-01-16 21:15:00,
2013-01-16 16:20:00,36.3,20.3,28.94,SSE,157,4.3,4.3,52,0.00,,,0.00,WUHU216WMR100,2013-01-16 21:20:00,
2013-01-16 16:25:00,36.1,19.7,28.94,SSE,157,4.3,4.3,51,0.00,,,0.00,WUHU216WMR100,2013-01-16 21:25:00,
2013-01-16 16:30:00,36.0,19.6,28.94,SSE,157,4.3,4.3,51,0.00,,,0.00,WUHU216WMR100,2013-01-16 21:30:00,
2013-01-16 16:35:00,36.0,20.0,28.94,SSE,157,4.3,4.3,52,0.00,,,0.00,WUHU216WMR100,2013-01-16 21:35:00,
2013-01-16 16:40:00,35.8,20.3,28.91,SSE,157,4.3,4.3,53,0.00,,,0.00,WUHU216WMR100,2013-01-16 21:40:00,
2013-01-16 16:45:00,35.6,20.6,28.91,SSE,157,4.3,4.3,54,0.00,,,0.00,WUHU216WMR100,2013-01-16 21:45:00,
2013-01-16 16:50:00,35.6,20.6,28.91,SSE,157,4.3,4.3,54,0.00,,,0.00,WUHU216WMR100,2013-01-16 21:50:00,
2013-01-16 16:55:00,35.4,20.8,28.94,WSW,247,2.0,4.3,55,0.00,,,0.00,WUHU216WMR100,2013-01-16 21:55:00,
2013-01-16 17:00:00,35.2,21.1,28.94,WSW,247,2.5,4.3,56,0.00,,,0.00,WUHU216WMR100,2013-01-16 22:00:00,
2013-01-16 17:05:00,35.1,21.4,28.94,SSE,157,2.0,3.8,57,0.00,,,0.00,WUHU216WMR100,2013-01-16 22:05:00,
2013-01-16 17:10:00,34.9,21.2,28.94,SSW,202,2.5,4.3,57,0.00,,,0.00,WUHU216WMR100,2013-01-16 22:10:00,
2013-01-16 17:15:00,34.9,21.2,28.94,WSW,247,4.3,6.5,57,0.00,,,0.00,WUHU216WMR100,2013-01-16 22:15:00,
2013-01-16 17:20:00,34.7,21.0,28.94,South,180,2.2,6.5,57,0.00,,,0.00,WUHU216WMR100,2013-01-16 22:20:00,
2013-01-16 17:25:00,34.5,20.9,28.94,SSW,202,3.4,6.0,57,0.00,,,0.00,WUHU216WMR100,2013-01-16 22:25:00,
2013-01-16 17:30:00,34.5,20.9,28.94,WSW,247,3.1,6.0,57,0.00,,,0.00,WUHU216WMR100,2013-01-16 22:30:00,
2013-01-16 17:35:00,34.3,20.7,28.94,WSW,247,2.2,4.7,57,0.00,,,0.00,WUHU216WMR100,2013-01-16 22:35:00,
2013-01-16 17:40:00,34.3,21.1,28.94,SSW,202,4.5,7.2,58,0.00,,,0.00,WUHU216WMR100,2013-01-16 22:40:00,
2013-01-16 17:45:00,34.2,23.0,28.94,SSE,157,2.5,7.2,63,0.00,,,0.00,WUHU216WMR100,2013-01-16 22:45:00,
2013-01-16 17:50:00,34.0,24.6,28.94,South,180,4.3,6.0,68,0.00,,,0.00,WUHU216WMR100,2013-01-16 22:50:00,
2013-01-16 17:55:00,33.8,25.5,28.97,SSW,202,3.4,6.5,71,0.00,,,0.00,WUHU216WMR100,2013-01-16 22:55:00,
2013-01-16 18:00:00,33.8,25.8,28.97,SSE,157,4.0,6.5,72,0.00,,,0.00,WUHU216WMR100,2013-01-16 23:00:00,
2013-01-16 18:05:00,33.6,26.2,28.97,SSW,202,3.4,8.7,74,0.00,,,0.00,WUHU216WMR100,2013-01-16 23:05:00,
2013-01-16 18:10:00,33.6,26.2,28.94,WSW,247,2.2,8.7,74,0.00,,,0.00,WUHU216WMR100,2013-01-16 23:10:00,
2013-01-16 18:15:00,33.4,26.4,28.94,SSW,202,3.6,6.3,75,0.00,,,0.00,WUHU216WMR100,2013-01-16 23:15:00,
2013-01-16 18:20:00,33.3,26.6,28.94,SSE,157,4.7,6.3,76,0.00,,,0.00,WUHU216WMR100,2013-01-16 23:20:00,
2013-01-16 18:25:00,33.3,26.6,28.97,SSW,202,3.4,5.4,76,0.00,,,0.00,WUHU216WMR100,2013-01-16 23:25:00,
2013-01-16 18:30:00,33.1,26.4,28.97,South,180,2.9,5.8,76,0.00,,,0.00,WUHU216WMR100,2013-01-16 23:30:00,
2013-01-16 18:35:00,33.1,26.4,28.97,WSW,247,3.4,8.7,76,0.00,,,0.00,WUHU216WMR100,2013-01-16 23:35:00,
2013-01-16 18:40:00,33.1,26.7,28.97,WSW,247,2.9,8.7,77,0.00,,,0.00,WUHU216WMR100,2013-01-16 23:40:00,
2013-01-16 18:45:00,32.9,26.5,28.97,SSW,202,2.0,4.0,77,0.00,,,0.00,WUHU216WMR100,2013-01-16 23:45:00,
2013-01-16 18:50:00,32.9,26.8,28.97,SSE,157,4.0,6.0,78,0.00,,,0.00,WUHU216WMR100,2013-01-16 23:50:00,
2013-01-16 18:55:00,32.7,26.6,28.97,SSW,202,2.2,6.0,78,0.00,,,0.00,WUHU216WMR100,2013-01-16 23:55:00,
2013-01-16 19:00:00,32.9,27.1,28.97,WNW,292,2.9,4.3,79,0.00,,,0.00,WUHU216WMR100,2013-01-17 00:00:00,
2013-01-16 19:05:00,32.9,27.1,28.97,SSE,157,4.0,7.4,79,0.00,,,0.00,WUHU216WMR100,2013-01-17 00:05:00,
2013-01-16 19:10:00,32.9,27.1,28.97,WSW,247,5.4,7.4,79,0.00,,,0.00,WUHU216WMR100,2013-01-17 00:10:00,
2013-01-16 19:15:00,33.1,27.6,28.97,WSW,247,3.1,6.3,80,0.00,,,0.00,WUHU216WMR100,2013-01-17 00:15:00,
2013-01-16 19:20:00,33.1,27.6,28.97,SSW,202,2.5,6.3,80,0.00,,,0.00,WUHU216WMR100,2013-01-17 00:20:00,
2013-01-16 19:25:00,33.1,27.6,28.97,SSE,157,3.1,6.3,80,0.00,,,0.00,WUHU216WMR100,2013-01-17 00:25:00,
2013-01-16 19:30:00,33.1,27.6,28.97,WSW,247,5.8,8.5,80,0.00,,,0.00,WUHU216WMR100,2013-01-17 00:30:00,
2013-01-16 19:35:00,32.9,27.1,28.97,SSE,157,2.7,8.5,79,0.00,,,0.00,WUHU216WMR100,2013-01-17 00:35:00,
2013-01-16 19:40:00,32.7,26.9,29.00,SW,225,2.9,4.7,79,0.00,,,0.00,WUHU216WMR100,2013-01-17 00:40:00,
2013-01-16 19:45:00,32.7,26.9,29.00,SSW,202,3.4,4.7,79,0.00,,,0.00,WUHU216WMR100,2013-01-17 00:45:00,
2013-01-16 19:50:00,32.7,27.2,29.00,WNW,292,4.9,8.1,80,0.00,,,0.00,WUHU216WMR100,2013-01-17 00:50:00,
2013-01-16 19:55:00,32.7,27.2,28.97,SSW,202,2.7,8.1,80,0.00,,,0.00,WUHU216WMR100,2013-01-17 00:55:00,
2013-01-16 20:00:00,32.7,27.2,28.97,West,270,2.0,4.9,80,0.00,,,0.00,WUHU216WMR100,2013-01-17 01:00:00,
2013-01-16 20:05:00,32.5,26.7,28.97,WSW,247,5.4,5.4,79,0.00,,,0.00,WUHU216WMR100,2013-01-17 01:05:00,
2013-01-16 20:10:00,32.5,26.7,29.00,WNW,292,2.5,5.8,79,0.00,,,0.00,WUHU216WMR100,2013-01-17 01:10:00,
2013-01-16 20:15:00,32.5,26.7,29.00,WSW,247,4.5,6.5,79,0.00,,,0.00,WUHU216WMR100,2013-01-17 01:15:00,
2013-01-16 20:20:00,32.5,27.0,29.00,SSW,202,2.5,6.5,80,0.00,,,0.00,WUHU216WMR100,2013-01-17 01:20:00,
2013-01-16 20:25:00,32.5,26.7,28.97,WNW,292,3.4,5.6,79,0.00,,,0.00,WUHU216WMR100,2013-01-17 01:25:00,
2013-01-16 20:30:00,32.5,26.7,28.97,SSE,157,3.4,5.6,79,0.00,,,0.00,WUHU216WMR100,2013-01-17 01:30:00,
2013-01-16 20:35:00,32.5,26.7,28.97,WSW,247,5.6,9.6,79,0.00,,,0.00,WUHU216WMR100,2013-01-17 01:35:00,
2013-01-16 20:40:00,32.5,26.7,29.00,WSW,247,3.1,9.6,79,0.00,,,0.00,WUHU216WMR100,2013-01-17 01:40:00,
2013-01-16 20:45:00,32.5,26.7,29.00,WSW,247,2.9,10.1,79,0.00,,,0.00,WUHU216WMR100,2013-01-17 01:45:00,
2013-01-16 20:50:00,32.5,26.7,29.00,WNW,292,2.9,10.1,79,0.00,,,0.00,WUHU216WMR100,2013-01-17 01:50:00,
2013-01-16 20:55:00,32.5,26.7,28.97,WNW,292,2.9,6.5,79,0.00,,,0.00,WUHU216WMR100,2013-01-17 01:55:00,
2013-01-16 21:00:00,32.4,26.3,28.97,WSW,247,3.8,6.5,78,0.00,,,0.00,WUHU216WMR100,2013-01-17 02:00:00,
2013-01-16 21:05:00,32.4,26.6,28.97,SSW,202,4.3,6.9,79,0.00,,,0.00,WUHU216WMR100,2013-01-17 02:05:00,
2013-01-16 21:10:00,32.4,26.6,29.00,WSW,247,3.6,6.9,79,0.00,,,0.00,WUHU216WMR100,2013-01-17 02:10:00,
2013-01-16 21:15:00,32.4,26.6,29.00,WSW,247,3.6,5.6,79,0.00,,,0.00,WUHU216WMR100,2013-01-17 02:15:00,
2013-01-16 21:20:00,32.4,26.6,29.00,WNW,292,3.6,3.6,79,0.00,,,0.00,WUHU216WMR100,2013-01-17 02:20:00,
2013-01-16 21:25:00,32.5,26.4,28.97,ESE,112,3.8,9.8,78,0.00,,,0.00,WUHU216WMR100,2013-01-17 02:25:00,
2013-01-16 21:30:00,32.4,26.3,28.97,SSE,157,3.1,9.8,78,0.00,,,0.00,WUHU216WMR100,2013-01-17 02:30:00,
2013-01-16 21:35:00,32.4,26.3,28.97,SSW,202,1.6,7.6,78,0.00,,,0.00,WUHU216WMR100,2013-01-17 02:35:00,
2013-01-16 21:40:00,32.4,26.3,28.97,West,270,4.3,7.6,78,0.00,,,0.00,WUHU216WMR100,2013-01-17 02:40:00,
2013-01-16 21:45:00,32.4,26.3,28.97,SSW,202,2.0,6.5,78,0.00,,,0.00,WUHU216WMR100,2013-01-17 02:45:00,
2013-01-16 21:50:00,32.4,26.3,28.97,SSW,202,4.5,5.8,78,0.00,,,0.00,WUHU216WMR100,2013-01-17 02:50:00,
2013-01-16 21:55:00,32.4,26.3,28.97,SSW,202,3.6,7.4,78,0.00,,,0.00,WUHU216WMR100,2013-01-17 02:55:00,
2013-01-16 22:00:00,32.4,26.3,28.97,SSW,202,4.3,7.4,78,0.00,,,0.00,WUHU216WMR100,2013-01-17 03:00:00,
2013-01-16 22:05:00,32.2,26.1,28.97,SSE,157,2.9,8.1,78,0.00,,,0.00,WUHU216WMR100,2013-01-17 03:05:00,
2013-01-16 22:10:00,32.2,25.8,28.97,WSW,247,5.8,8.1,77,0.00,,,0.00,WUHU216WMR100,2013-01-17 03:10:00,
2013-01-16 22:15:00,32.2,25.8,28.97,NNW,337,3.1,5.8,77,0.00,,,0.00,WUHU216WMR100,2013-01-17 03:15:00,
2013-01-16 22:20:00,32.4,26.0,28.97,WNW,292,2.0,7.4,77,0.00,,,0.00,WUHU216WMR100,2013-01-17 03:20:00,
2013-01-16 22:25:00,32.4,25.7,29.00,South,180,2.7,7.4,76,0.00,,,0.00,WUHU216WMR100,2013-01-17 03:25:00,
2013-01-16 22:30:00,32.2,25.5,29.00,WSW,247,1.6,4.3,76,0.00,,,0.00,WUHU216WMR100,2013-01-17 03:30:00,
2013-01-16 22:35:00,32.2,25.5,29.00,WSW,247,2.7,3.8,76,0.00,,,0.00,WUHU216WMR100,2013-01-17 03:35:00,
2013-01-16 22:40:00,32.2,25.5,28.97,WNW,292,2.2,3.4,76,0.00,,,0.00,WUHU216WMR100,2013-01-17 03:40:00,
2013-01-16 22:45:00,32.4,25.7,28.97,WSW,247,2.2,6.0,76,0.00,,,0.00,WUHU216WMR100,2013-01-17 03:45:00,
2013-01-16 22:50:00,32.4,25.7,28.97,West,270,2.5,6.0,76,0.00,,,0.00,WUHU216WMR100,2013-01-17 03:50:00,
2013-01-16 22:55:00,32.4,25.7,28.97,WSW,247,3.4,3.4,76,0.00,,,0.00,WUHU216WMR100,2013-01-17 03:55:00,
2013-01-16 23:00:00,32.2,25.5,28.97,WSW,247,3.4,3.4,76,0.00,,,0.00,WUHU216WMR100,2013-01-17 04:00:00,
2013-01-16 23:05:00,32.2,25.8,28.97,WSW,247,3.4,3.4,77,0.00,,,0.00,WUHU216WMR100,2013-01-17 04:05:00,
2013-01-16 23:10:00,32.2,25.8,29.00,East,90,2.5,4.0,77,0.00,,,0.00,WUHU216WMR100,2013-01-17 04:10:00,
2013-01-16 23:15:00,32.2,25.8,29.00,West,270,3.1,4.0,77,0.00,,,0.00,WUHU216WMR100,2013-01-17 04:15:00,
2013-01-16 23:20:00,32.2,25.8,29.00,WSW,247,3.8,4.0,77,0.00,,,0.00,WUHU216WMR100,2013-01-17 04:20:00,
2013-01-16 23:25:00,32.2,25.8,29.00,SW,225,2.7,4.3,77,0.00,,,0.00,WUHU216WMR100,2013-01-17 04:25:00,
2013-01-16 23:30:00,32.2,25.8,29.00,West,270,2.9,4.3,77,0.00,,,0.00,WUHU216WMR100,2013-01-17 04:30:00,
2013-01-16 23:35:00,32.2,25.8,29.00,WSW,247,1.3,6.0,77,0.00,,,0.00,WUHU216WMR100,2013-01-17 04:35:00,
2013-01-16 23:40:00,32.0,25.6,29.00,WSW,247,1.1,6.0,77,0.00,,,0.00,WUHU216WMR100,2013-01-17 04:40:00,
2013-01-16 23:45:00,32.0,25.6,29.00,SW,225,2.5,4.3,77,0.00,,,0.00,WUHU216WMR100,2013-01-17 04:45:00,
2013-01-16 23:50:00,32.0,25.6,29.00,SSE,157,2.9,4.3,77,0.00,,,0.00,WUHU216WMR100,2013-01-17 04:50:00,
2013-01-16 23:55:00,32.0,25.6,29.00,WSW,247,3.4,4.3,77,0.00,,,0.00,WUHU216WMR100,2013-01-17 04:55:00,